Simultaneous Nadir Overpasses (SNOs) Predictions

Prediction of SNOs between GOES-16 and NOAA-20 Satellite Orbit:

Table of predicted SNOs for the next 14.0 days since TLE Epoch: 1/23/2021
Index Date Time (GOES-16) GOES-16 Lat,Lon NOAA-20 Lat,Lon Distance(km) Time Diff (sec)
1 01/23/2021 18:16:45 -0.02, -75.20 0.55, -72.74 281.44 80
2 01/25/2021 06:38:32 0.01, -75.20 0.64, -78.00 318.89 80
3 01/26/2021 06:17:08 0.01, -75.20 -0.38, -73.47 197.37 80
4 01/27/2021 18:39:04 -0.01, -75.20 -0.82, -78.77 407.26 80
5 01/28/2021 18:23:00 -0.01, -75.20 0.20, -74.24 109.53 80
6 01/30/2021 06:44:47 0.00, -75.21 1.00, -79.50 489.58 80
7 01/31/2021 06:23:22 0.00, -75.21 -0.03, -74.97 27.48 80
8 02/02/2021 18:26:34 -0.00, -75.23 -0.14, -75.74 59.00 80
9 02/03/2021 18:10:30 -0.00, -75.24 0.88, -71.21 458.65 80
10 02/05/2021 06:32:18 0.00, -75.26 0.26, -76.49 139.29 80
